Wind_Speed
22 15 24 23 23 23 23 27 27 23 27 28 29 26 23 25 27 27 21 22 21 21 18 13 13 7 6 7 5 4 7 7 3 8 10 14 11 13 11 12 4 5 8
21 17 22 22 23 23 24 22 25 26 24 26 26 29 25 18 23 24 29 26 21 21 20 20 17 12 11 7 6 8 9 7 7 5 14 13 14 10 9 13 11 11 12
20 18 20 23 19 23 23 18 24 23 22 26 26 26 26 20 19 21 21 24 21 20 20 18 17 12 9 10 10 9 8 10 10 8 8 11 13 13 11 9 11 12 19
19 19 20 21 19 23 18 20 17 19 23 24 23 26 26 23 13 16 19 19 24 23 24 21 19 20 15 10 13 11 9 11 11 10 9 10 11 12 10 10 12 10 15
18 19 19 20 18 21 17 21 17 17 16 23 23 25 28 21 20 16 19 18 22 21 24 25 22 20 17 14 12 1 6 11 12 11 8 6 7 10 10 9 10 11 14
16 17 18 19 18 18 20 21 21 16 17 16 19 22 25 22 24 19 18 18 15 18 20 23 22 19 23 16 16 16 17 22 5 7 4 4 8 14 16 15 10 5 3
15 17 18 18 18 18 18 22 23 19 17 16 14 20 23 23 22 22 17 18 13 16 18 21 22 23 20 24 21 15 13 13 12 8 4 3 6 11 16 18 17 14 11
16 18 19 18 17 18 18 20 21 20 21 18 16 14 21 23 22 18 21 19 18 16 18 18 19 21 17 20 20 20 17 13 11 9 7 8 9 11 12 13 14 17 14
17 18 19 18 17 18 19 20 20 20 20 20 16 20 17 21 19 20 19 20 20 17 17 20 17 16 15 11 17 15 15 11 10 8 7 7 8 9 8 11 10 8 4
17 18 17 17 17 19 18 20 20 18 17 17 17 17 19 19 19 20 19 19 18 17 19 18 18 19 16 13 13 14 15 11 11 11 9 8 9 9 10 8 6 6 6
15 15 15 15 15 16 18 17 20 18 17 19 18 19 20 23 21 21 20 19 18 17 18 21 19 18 16 16 15 14 15 13 12 12 9 10 10 10 10 9 7 3 7
14 13 12 12 13 13 16 18 19 20 19 20 21 24 24 25 23 22 21 20 18 20 19 18 16 16 16 15 15 15 14 15 15 14 12 11 11 12 12 11 9 9 9
14 14 12 11 13 14 15 16 18 19 20 22 23 25 26 26 27 26 24 22 21 19 17 14 15 14 15 17 16 14 15 16 13 13 12 13 14 13 11 9 9 11 13
12 14 12 13 13 13 13 13 14 17 19 21 22 24 28 28 28 28 26 22 21 20 18 17 16 17 17 18 20 18 16 14 14 13 12 13 15 15 12 9 10 12 13
10 12 12 12 13 14 13 14 16 16 16 16 18 21 24 26 25 21 21 20 20 18 17 21 23 24 24 24 23 21 19 18 17 16 14 14 14 13 13 12 11 12 12
7 9 9 10 11 12 13 15 11 13 14 14 12 16 17 15 17 19 19 17 17 18 22 23 24 24 23 23 22 21 21 20 19 16 16 15 13 15 14 15 12 11 12
6 7 8 7 9 10 12 13 17 16 13 14 13 14 15 15 17 17 19 17 16 19 23 22 22 23 23 22 22 20 20 18 17 18 15 14 15 13 13 14 14 15 14
5 6 6 10 8 10 11 11 12 13 16 17 14 14 19 17 16 17 19 20 25 26 25 24 24 24 24 24 23 22 22 19 18 17 17 16 15 15 15 15 16 15 14
7 5 7 9 8 8 9 10 10 11 13 14 16 17 18 18 17 19 19 20 22 25 25 25 23 24 25 25 25 24 23 19 17 16 17 16 16 15 15 15 14 13 14
6 5 5 8 8 9 10 12 12 13 14 15 16 17 19 19 20 19 19 20 21 20 21 23 23 24 25 25 27 26 25 25 22 19 17 16 16 15 16 16 17 18 16
7 6 5 6 7 9 10 12 12 13 14 16 16 16 15 16 17 17 19 19 19 20 20 21 21 22 23 25 26 28 27 26 25 22 20 18 17 18 18 18 19 20 20
8 5 4 5 5 7 8 9 10 11 12 14 15 16 15 15 16 16 18 19 19 20 18 19 20 20 20 24 25 25 26 27 26 24 22 21 20 20 20 20 20 20 20
4 3 2 3 4 5 6 8 9 10 11 11 13 15 15 17 17 20 22 20 21 20 19 19 19 20 19 22 25 24 24 25 24 21 22 22 22 21 20 19 18 19 19
5 4 3 2 3 5 5 6 7 8 9 10 12 13 14 15 17 20 20 21 21 20 20 20 18 19 19 20 24 23 23 22 20 19 19 19 18 18 18 18 18 18 16
2 1 3 4 5 6 7 8 9 10 11 10 10 12 14 16 19 20 21 21 21 21 21 19 18 18 19 19 21 23 22 21 19 19 17 17 17 15 17 18 18 19 18
4 3 1 2 4 5 6 7 8 9 10 10 11 13 14 16 19 22 21 21 22 21 21 20 19 18 17 20 22 20 21 22 21 19 18 17 17 17 16 17 17 19 18
Wind_Direction
9 13 13 13 12 11 12 16 14 20 20 21 20 20 23 24 24 29 24 19 20 24 20 8 18 325 303 287 294 284 248 243 251 281 292 311 335 305 299 338 273 303 254
10 13 13 9 14 12 7 12 20 23 18 22 19 21 24 22 30 22 28 25 23 19 12 12 2 341 3 292 289 283 278 265 244 268 304 308 305 316 320 309 275 294 282
12 15 14 14 13 11 11 14 21 24 23 19 20 18 16 23 20 26 28 30 27 24 16 9 4 351 325 348 287 270 282 269 257 259 276 299 304 310 297 279 285 276 271
16 16 16 16 15 12 15 15 10 17 25 22 21 18 16 11 30 28 24 27 30 22 21 20 10 9 352 321 313 276 263 269 261 267 282 288 291 299 296 279 271 282 271
16 16 15 16 15 15 23 16 13 18 18 28 25 18 16 4 26 38 28 24 20 20 21 18 16 9 4 4 12 314 263 268 267 266 265 271 310 310 297 287 264 260 265
16 16 14 14 16 13 16 19 17 17 15 13 25 19 15 3 29 27 25 23 24 20 18 17 16 12 18 16 15 19 24 33 283 248 245 339 330 332 312 286 278 250 282
12 14 12 13 16 11 9 13 15 16 12 11 10 19 19 14 25 31 26 27 22 26 22 18 13 14 32 26 26 25 22 28 35 34 31 334 347 345 325 297 268 251 239
7 7 8 9 11 12 11 11 12 11 13 10 13 10 21 20 15 26 26 27 27 23 21 14 16 9 13 24 20 26 27 27 21 6 349 336 326 326 316 325 297 273 257
3 1 3 6 6 8 10 8 9 10 13 17 17 22 11 18 14 18 20 15 23 22 16 17 1 2 7 21 15 5 8 16 15 8 4 346 333 336 331 303 304 268 254
354 354 2 7 10 10 8 9 9 14 15 15 20 20 23 18 18 15 17 18 18 15 12 13 4 1 8 8 5 345 338 352 348 339 332 336 348 349 354 354 288 310 287
354 1 3 10 13 13 16 19 13 20 25 26 25 27 24 17 18 17 17 17 15 14 15 7 9 4 10 5 6 6 11 7 4 8 355 336 306 326 339 330 336 300 271
357 5 4 10 12 10 12 22 20 24 26 25 23 23 25 20 20 16 18 17 13 6 8 7 9 9 11 11 7 8 9 4 5 1 358 355 351 345 332 306 293 310 288
2 4 3 6 10 8 2 1 5 13 17 19 16 9 10 18 20 16 14 12 13 13 16 20 18 22 19 21 15 13 15 10 355 358 349 343 338 329 325 328 300 294 297
4 8 6 11 5 4 2 355 353 355 0 8 8 3 3 9 10 6 8 14 17 20 22 29 26 33 34 30 24 25 18 5 1 3 342 334 335 344 337 326 317 312 305
5 6 2 3 4 358 354 356 357 1 348 340 353 355 360 356 360 0 5 10 14 15 21 29 27 25 23 22 21 19 15 11 8 0 350 350 347 339 343 345 326 312 301
356 357 359 354 356 355 350 353 14 3 0 0 357 353 353 351 354 5 10 13 15 16 29 26 21 18 15 13 12 9 12 9 7 1 1 353 336 335 330 336 337 322 304
345 346 343 339 342 344 349 352 352 358 9 17 15 358 7 359 7 10 10 16 20 20 26 21 17 14 9 8 7 7 359 5 5 3 358 354 355 340 332 331 329 319 306
340 336 331 335 326 334 343 342 349 353 352 357 5 2 11 14 14 12 11 14 16 20 17 14 9 8 7 4 2 1 0 0 0 4 1 357 353 345 344 334 330 324 321
339 346 334 336 333 333 332 334 347 348 350 352 355 5 8 7 16 21 14 18 11 9 7 8 8 6 4 4 3 360 360 359 352 358 1 1 358 353 347 344 341 340 344
328 319 330 332 336 336 342 344 344 349 349 353 357 357 358 360 9 8 7 11 10 7 5 4 3 5 5 4 1 0 359 359 358 356 353 354 353 348 339 335 334 329 324
306 318 329 333 340 342 343 346 347 347 350 349 354 2 358 3 2 359 357 4 6 3 360 0 1 3 5 3 1 359 359 358 356 354 352 348 347 343 340 335 332 332 330
301 314 330 344 347 352 351 357 360 355 356 354 360 5 3 360 360 354 353 0 3 1 359 360 1 3 5 6 1 359 358 356 355 352 349 347 345 344 344 340 340 340 337
285 302 352 22 24 16 27 23 15 17 16 13 8 7 4 358 357 353 357 0 359 359 1 3 360 2 5 5 6 4 0 357 352 350 344 344 343 344 346 344 347 349 349
266 292 309 338 4 3 4 7 6 6 9 2 5 5 0 358 356 357 360 357 358 359 2 3 3 3 2 3 4 5 3 2 358 354 352 347 346 351 354 355 358 359 1
294 322 336 5 20 19 3 2 360 355 353 349 347 348 352 357 358 360 360 358 359 359 2 4 3 2 3 357 5 7 5 4 5 1 356 357 356 355 2 5 4 6 10
156 155 254 342 16 22 9 2 359 356 353 346 343 348 354 358 1 359 357 359 359 357 0 3 3 1 0 2 1 7 11 9 7 6 3 4 7 8 4 7 11 14 14
Height
845 842 839 835 831 827 824 820 815 810 806 801 796 791 786 782 778 774 770 767 764 762 759 758 757 756 755 755 755 754 755 755 756 755 753 753 751 751 750 749 749 751 751
845 842 839 835 831 827 824 821 816 812 808 803 798 793 788 785 782 778 774 771 767 764 762 760 758 755 753 753 753 753 753 754 754 752 750 750 751 750 748 749 749 749 750
845 842 839 835 831 827 824 820 817 814 809 805 800 795 790 786 783 781 777 774 771 767 764 761 758 754 753 752 751 750 750 750 750 750 749 749 748 748 749 748 748 747 748
845 842 839 835 831 828 824 821 818 814 810 806 801 797 792 787 784 782 780 776 773 769 766 762 759 755 752 750 747 747 747 747 747 748 748 748 748 747 747 747 746 745 744
844 841 838 835 832 828 824 821 818 814 811 808 803 799 794 788 785 783 780 777 774 771 768 764 760 757 752 749 743 745 745 744 744 745 746 746 746 745 744 743 743 742 741
844 841 838 834 831 828 825 822 818 815 812 809 805 801 796 790 787 785 782 779 776 773 770 766 763 758 754 751 747 746 746 742 742 743 743 744 744 743 742 741 740 740 739
844 841 837 834 831 828 825 822 818 815 812 808 805 802 798 793 790 787 784 780 778 775 772 768 764 760 756 753 750 748 746 745 745 745 744 744 743 741 739 736 736 736 736
844 841 837 834 832 829 825 822 819 815 812 809 806 803 799 795 791 787 785 781 778 776 773 769 766 763 760 756 753 750 747 746 745 745 744 743 741 740 738 735 733 732 732
843 840 838 836 833 830 826 822 819 816 812 809 806 802 799 796 792 787 784 781 779 776 774 771 767 763 760 757 754 751 749 747 745 744 743 742 740 737 735 733 732 730 729
841 840 840 837 835 831 827 823 820 816 812 809 805 802 800 796 793 789 786 782 779 777 774 771 767 763 760 757 755 752 749 747 745 743 741 739 738 735 734 731 730 729 728
843 842 841 838 834 832 828 824 820 816 813 809 807 804 801 798 794 791 787 783 780 776 773 770 767 764 760 758 755 751 749 747 745 742 740 737 736 734 732 730 728 727 727
842 840 839 836 834 831 827 825 820 818 814 809 807 804 801 799 795 792 788 784 781 777 774 770 768 765 762 758 755 752 750 747 744 741 738 736 734 732 729 728 726 725 724
841 840 838 836 835 832 829 825 821 819 815 812 810 805 801 798 794 792 789 785 782 778 775 772 768 765 762 758 755 753 749 746 743 740 737 735 733 730 727 725 724 723 721
839 839 838 837 834 830 828 824 822 819 819 815 810 807 805 801 796 792 788 784 781 777 775 771 768 765 761 759 755 752 749 746 744 740 737 734 731 727 724 722 721 719 717
838 838 837 835 833 831 828 826 826 824 819 815 815 812 808 801 797 795 791 787 784 781 776 771 766 762 759 756 754 751 749 745 742 739 736 733 730 726 723 720 718 715 713
836 835 834 833 832 830 826 826 824 822 819 816 814 814 809 803 799 797 793 789 786 781 775 771 768 765 761 757 754 751 748 745 742 738 735 732 728 725 722 719 716 713 710
833 834 833 831 829 827 825 823 823 819 816 816 813 810 807 803 801 798 794 789 783 779 775 772 769 765 762 758 754 751 747 744 741 737 734 730 727 724 720 717 713 709 706
832 832 831 829 828 827 826 823 821 818 815 813 811 809 807 804 801 798 794 789 784 782 779 776 771 767 763 759 755 751 746 742 739 735 732 729 726 723 719 716 712 708 704
830 830 829 827 826 825 824 821 820 818 816 813 810 808 805 802 801 799 793 789 787 784 780 776 772 768 764 760 756 751 747 742 738 734 730 727 724 721 717 714 711 707 703
828 827 827 826 825 824 823 822 820 818 816 814 811 807 804 800 797 795 790 788 785 781 778 775 772 768 764 760 756 751 746 742 737 733 729 726 722 719 716 712 709 705 701
826 826 825 824 823 822 822 820 818 817 815 813 811 808 806 803 800 795 791 788 785 781 777 774 770 766 763 759 754 750 745 741 737 733 729 725 721 717 713 709 705 701 697
825 824 822 822 820 820 819 818 816 815 813 811 810 808 805 802 798 794 791 788 786 783 778 775 771 767 763 759 755 749 745 740 735 732 728 724 720 716 711 707 703 699 694
824 822 820 820 819 818 817 816 815 813 812 810 808 806 803 800 798 794 792 789 784 781 777 773 768 765 761 758 754 750 745 740 736 732 728 723 719 715 711 706 702 697 693
821 821 819 818 817 817 815 814 813 811 810 809 807 804 802 799 797 794 790 787 784 780 776 773 770 766 760 756 752 748 744 739 736 732 728 724 719 715 710 706 701 697 693
817 819 819 818 817 816 815 814 813 811 809 807 804 802 801 798 795 792 789 785 782 778 774 770 766 763 760 757 751 747 743 739 734 730 727 723 719 715 712 707 702 698 694
814 815 817 818 817 815 815 815 813 811 810 807 805 802 799 797 795 791 787 783 780 777 774 771 767 762 758 754 751 746 742 738 734 729 726 722 719 715 712 708 703 699 694